Home   Weather   Bloemfontein   Past weeks

Flag for South Africa Past Weather in Bloemfontein, South Africa — Yesterday and Last 2 Weeks

Now
84 °F

Scattered clouds.


Feels Like: 82 °F
Forecast: 62 / 82 °F
Wind: 7 mph from North

Location: Bloemfontein Airport

Current Time: Dec 11, 2016 at 3:50:58 pm

Latest Report: Dec 11, 2016 at 3:00 pm


Visibility: N/A

Pressure: 30.04 "Hg (25.65 "Hg at 1397m altitude)

Humidity: 27%

Dew Point: 46 °F

Location of BloemfonteinLocation

Past Weather in Bloemfontein — Graph

°F

Bloemfontein Temperature Yesterday

Maximum temperature yesterday: 90 °F (at 4:00 pm)
Minimum temperature yesterday: 55 °F (at 4:00 am)
Average temperature yesterday: 74 °F

High & Low Weather Summary for the Past Weeks

 TemperatureHumidityPressure
High99 °F (Nov 30, 2:00 pm)94% (Dec 9, 5:00 am)30.21 "Hg (Dec 9, 5:00 am)
Low55 °F (Dec 2, 5:00 am)5% (Nov 30, 11:00 am)29.92 "Hg (Nov 30, 4:00 pm)
Average77 °F37%30.05 "Hg
* Reported Nov 26 2:00 pm — Dec 11 2:00 pm, Bloemfontein, Weather by CustomWeather, © 2016

Note: Actual official high and low records may vary slightly from our data, if they occured in-between our weather recording intervals... More about our weather records

Advertising

Bloemfontein Weather History for the Previous 24 Hours

Scroll right to see more
 ConditionsComfort  
Time TempWeatherWind HumidityBarometerVisibility
2:00 pm
Sun, Dec 11
86 °FScattered clouds.6 mph20%30.07 "HgN/A
1:00 pm86 °FScattered clouds.12 mph27%30.07 "HgN/A
12:00 pm81 °FScattered clouds.8 mph39%30.09 "HgN/A
11:00 am82 °FScattered clouds.7 mph35%30.12 "HgN/A
10:00 am79 °FPassing clouds.12 mph48%30.12 "HgN/A
9:00 am75 °FPassing clouds.16 mph54%30.12 "HgN/A
8:00 am72 °FSunny.N/A53%30.15 "Hg10 mi
7:00 am66 °FPassing clouds.9 mph68%30.12 "HgN/A
6:00 am63 °FSunny.7 mph77%30.12 "Hg10 mi
5:00 am61 °FClear.6 mph77%30.09 "Hg10 mi
4:00 am61 °FCool.6 mph77%30.09 "HgN/A
3:00 am63 °FMild.10 mph73%30.07 "HgN/A
2:00 am63 °FMild.5 mph64%30.04 "HgN/A
1:00 am66 °FMild.2 mph52%30.04 "HgN/A
12:00 am70 °FMild.8 mph46%30.04 "HgN/A
11:00 pm
Sat, Dec 10
70 °FMild.16 mph50%30.04 "HgN/A
10:00 pm73 °FMild.20 mph38%30.01 "HgN/A
9:00 pm79 °FPleasantly warm.8 mph26%29.98 "HgN/A
8:00 pm81 °FClear.8 mph24%29.95 "Hg10 mi
7:00 pm84 °FSunny.12 mph19%29.95 "Hg10 mi
6:00 pm88 °FPassing clouds.14 mph16%29.92 "HgN/A
5:00 pm88 °FPassing clouds.17 mph16%29.92 "HgN/A
4:00 pm90 °FPassing clouds.14 mph16%29.95 "HgN/A
3:00 pm88 °FPassing clouds.15 mph17%29.95 "HgN/A
Weather by CustomWeather, © 2016

See weather overviewHow to use our weather pages